User: anonymous   Login
Location: Larrial
(48.2758°N, 4.5331°W)
Time: 18:35:40
(UTC+00:00)
Language:

NANOSAT C BR1 - Orbit

View from above orbital plane
View from above orbital plane
View from above satellite
View from above satellite

Ground track
Ground track

The orbit data is extracted from the following two-line orbital elements,

1 40024U 14033Q   21341.02468057  .00000848  00000-0  92247-4 0  9992
2 40024  97.9669 277.5250 0011377 328.2353  31.8177 14.90726196405822
Epoch (UTC): 07 December 2021 00:35:32
Eccentricity: 0.0011377
inclination: 97.9669°
perigee height: 588 km
apogee height: 603 km
right ascension of ascending node: 277.5250°
argument of perigee: 328.2353°
revolutions per day: 14.90726196
mean anomaly at epoch: 31.8177°
orbit number at epoch: 40582

The dashed part of the orbit path shows where the satellite is in the earth's shadow,  

DLR